Regional Weather Roundup
Issued by NWS

Home | Current Version | Previous Version | Text Only | Print | Product List | Glossary Off
Versions: 1 2 3 4 5 6 7 8 9 10 11 12 13 14 15 16 17 18 19 20 21 22 23 24 25 26 27 28 29 30 31 32 33 34 35 36 37 38 39 40 41 42 43 44 45 46 47 48 49 50

000
ASUS43 KMPX 012010
RWRMN
WEATHER ROUNDUP FOR MINNESOTA
NATIONAL WEATHER SERVICE TWIN CITIES/CHANHASSEN MN
300 PM CDT MON JUN 01 2015


NOTE: "FAIR" INDICATES FEW OR NO CLOUDS BELOW 12,000 FEET WITH NO
SIGNIFICANT WEATHER AND/OR OBSTRUCTIONS TO VISIBILITY. N/A MEANS
CURRENT SKY AND/OR WEATHER CONDITIONS ARE NOT AVAILABLE.

MNZ060>063-068>070-012100-
   Twin Cities Metro

CITY           SKY/WX    TMP DP  RH WIND       PRES   REMARKS
TWIN CITIES    MOSUNNY   67  36  31 SE13      30.18F
ST PAUL        SUNNY     67  38  34 S12       30.20F
CRYSTAL        SUNNY     68  33  27 SE12      30.17F
BLAINE         PTSUNNY   68  34  28 SE14      30.18F
LAKEVILLE      SUNNY     66  36  32 SE12G18   30.18F
EDEN PRAIRIE   SUNNY     68  35  29 SE12      30.17F
SOUTH ST PAUL  SUNNY     66  37  33 E3        30.19F
LAKE ELMO      FAIR      66  43  42 E9        30.21F
$$
MNZ001>005-007-008-013>017-022>024-027-028-012100-
   Northwest Minnesota

CITY           SKY/WX    TMP DP  RH WIND       PRES   REMARKS
BEMIDJI        MOSUNNY   67  44  43 SE15G23   30.12F
HALLOCK        PTSUNNY   72  41  33 S28G33    29.99F
ROSEAU         MOSUNNY   70  46  43 S21G26    30.05F
WARROAD        SUNNY     70  52  52 SE14      30.07F
THIEF RVR FALL CLOUDY    64  43  45 S20G26    30.06F
CROOKSTON      CLOUDY    70  43  37 S22G31    30.03F
FOSSTON        CLOUDY    64  43  45 S20G26    30.08F
DETROIT LAKES  PTSUNNY   68  45  42 S18G24    30.09F
MOORHEAD       CLOUDY    68  45  42 SE23G30   30.05F
PARK RAPIDS    CLOUDY    69  42  37 SE17      30.12F
MAHNOMEN       CLOUDY    66  45  47 S16G25    30.07F
$$
MNZ006-009>011-018-025>026-012100-
   North Central Minnesota

CITY           SKY/WX    TMP DP  RH WIND       PRES   REMARKS
BAUDETTE       CLOUDY    67  40  37 S20G25    30.09F
FLAG ISLAND    PTSUNNY   61  48  63 S16       30.07F
INTL FALLS     SUNNY     69  34  27 S10G22    30.12F
WASKISH        PTSUNNY   68  45  42 SE12G18   30.11F
BIG FORK       SUNNY     70  37  30 S14G20    30.15F
LONGVILLE      SUNNY     66  37  34 SE12G18   30.15F
GRAND RAPIDS   MOSUNNY   66  37  34 S16G22    30.16F
CRANE LAKE     SUNNY     66  34  30 S7G18     30.17F
ORR            SUNNY     70  32  24 SE13G21   30.14F
COOK           SUNNY     66  36  32 S14G20    30.17F
WALKER         FAIR      65  41  41 SE14G21   30.13F
$$
MNZ012-019>021-037-012100-
   Northeast Minnesota

CITY           SKY/WX    TMP DP  RH WIND       PRES   REMARKS
DULUTH         SUNNY     60  40  47 SE14      30.22F
ELY            SUNNY     66  28  24 S12G20    30.18F
HIBBING        SUNNY     67  38  34 S13G22    30.18F
EVELETH        SUNNY     64  36  34 S14       30.19F
DULUTH HARBOR  SUNNY     46  37  71 E13       30.25F
TWO HARBORS    SUNNY     63  45  51 E8        30.21F
SILVER BAY     SUNNY     59  37  44 E7        30.23F
GRAND MARAIS     N/A     46  28  49 E3        30.29F
G MARAIS ARPRT SUNNY     55  21  26 SE7       30.28S
$$
MNZ029>031-032-039>041-046>048-054>057-064-012100-
   West Central Minnesota

CITY           SKY/WX    TMP DP  RH WIND       PRES   REMARKS
FERGUS FALLS   PTSUNNY   70  45  40 S20G28    30.08F
WHEATON        MOSUNNY   72  45  37 SE25G31   30.05F
MORRIS         MOSUNNY   73  45  35 SE21G29   30.07F
ALEXANDRIA     PTSUNNY   68  43  40 SE18G28   30.13F
ELBOW LAKE     CLOUDY    69  44  40 S20G26    30.08F
WADENA         PTSUNNY   64  45  48 SE18      30.12F
GLENWOOD       PTSUNNY   68  45  42 SE17      30.13F
APPLETON       MOSUNNY   75  41  29 SE17G23   30.07F
BENSON         MOSUNNY   73  37  27 S15G22    30.09F
ORTONVILLE     MOSUNNY   75  45  33 SE16G24   30.05F
MADISON        SUNNY     75  41  29 S21G28    30.07F
WILLMAR        FAIR      72  43  35 S8G29     30.14F
$$
MNZ033>034-036-042>043-049>051-058-059-012100-
   Central Minnesota

CITY           SKY/WX    TMP DP  RH WIND       PRES   REMARKS
ST CLOUD       MOSUNNY   67  35  30 SE14G21   30.17S
SAUK CENTRE    FAIR      69  44  40 SE16G22   30.14F
PAYNESVILLE    PTSUNNY   64  44  47 E10       30.16S
AITKIN         SUNNY     68  36  30 S10G17    30.16F
PINE RIVER     MOSUNNY   66  39  37 S13G22    30.18F
BRAINERD       MOSUNNY   67  37  33 S13G22    30.16F
STAPLES        MOSUNNY   64  41  42 SE10G17   30.14F
LONG PRAIRIE   FAIR      66  45  45 E15       30.15F
LITTLE FALLS   MOSUNNY   68  32  26 S12G20    30.16F
LITCHFIELD     MOSUNNY   66  45  45 SE12      30.16F
BUFFALO        MOSUNNY   66  32  28 SE9G17    30.19S
MAPLE LAKE     SUNNY     68  42  39 SE3       30.19S
$$
MNZ037-044-045-052-053-012100-
   East Central Minnesota

CITY           SKY/WX    TMP DP  RH WIND       PRES   REMARKS
PRINCETON      MOSUNNY   70  36  28 SE12      30.18F
MORA           SUNNY     64  34  32 S12       30.20F
CAMBRIDGE      SUNNY     70  46  43 SE10G16   30.17F
RUSH CITY      SUNNY     66  36  33 S10G18    30.20F
MOOSE LAKE     MOSUNNY   68  37  32 SE6       30.17F
HINCKLEY       FAIR      68  34  28 SE13      30.19F
CLOQUET        SUNNY     63  41  45 E8        30.21F
MCGREGOR       SUNNY     68  36  30 SE13G18   30.17F
$$
MNZ071>073-080-081-089-090-097-098-012100-
   Southwest Minnesota

CITY           SKY/WX    TMP DP  RH WIND       PRES   REMARKS
MONTEVIDEO     MOSUNNY   73  45  35 S16G24    30.10F
GRANITE FALLS  SUNNY     73  43  33 SE13G28   30.11F
CANBY          SUNNY     74  43  32 SE16      30.07F
MARSHALL       SUNNY     73  45  35 SE21G26   30.08F
REDWOOD FALLS  SUNNY     73  44  35 SE15G30   30.12F
OLIVIA         SUNNY     68  41  37 SE10G23   30.13S
PIPESTONE      SUNNY     73  46  38 S15G24    30.08F
WINDOM         SUNNY     73  43  33 SE14G20   30.12F
WORTHINGTON    SUNNY     73  43  33 SE16G23   30.11F
JACKSON        SUNNY     72  43  35 SE12G18   30.14F
TRACY          SUNNY     74  45  35 SE20      30.10F
SLAYTON        SUNNY     74  40  30 SE18      30.11S
$$
MNZ065>067-074>077-082>085-091>093-012100-
   South Central Minnesota

CITY           SKY/WX    TMP DP  RH WIND       PRES   REMARKS
MANKATO        SUNNY     68  43  40 SE10      30.16F
NEW ULM        MOSUNNY   70  43  37 S10       30.14F
ST JAMES       MOSUNNY   73  43  33 E18       30.15F
FAIRMONT       MOSUNNY   70  39  32 SE14      30.14F
GLENCOE        MOSUNNY   69  43  38 SE12      30.16S
FARIBAULT      SUNNY     68  39  34 SE7       30.19F
OWATONNA       SUNNY     68  37  32 E13       30.18F
WASECA         SUNNY     68  41  37 E10       30.19F
ALBERT LEA     SUNNY     70  37  30 SE10G21   30.18F
$$
MNZ078>079-086>088-094>096-012100-
   Southeast Minnesota

CITY           SKY/WX    TMP DP  RH WIND       PRES   REMARKS
ROCHESTER      SUNNY     65  42  43 SE10G17   30.21F
RED WING       SUNNY     70  36  28 SE12      30.20S
STANTON        SUNNY     68  34  28 SE8       30.18F
DODGE CENTER   SUNNY     66  36  32 SE12G17   30.20S
WINONA         SUNNY     70  45  40 E10       30.22S
AUSTIN         SUNNY     66  39  37 E6        30.19F
PRESTON        SUNNY     64  39  39 SE10      30.21F
$$
ABBREVIATIONS USED IN REMARKS
   TC - TEMPERATURES IN CELSIUS
  WCI - WIND CHILL INDEX
   HX - HEAT INDEX
  VSB - VISIBILITY
$$



USA.gov is the U.S. government's official web portal to all federal, state and local government web resources and services.